Wind_Speed
4 4 4 4 4 5 6 7 8 10 10 10 10 9 9 9 9 9 9 9 8 8 7 7 6 7 7 8 8 9 9 10 10 10 11 11 11 12 12 13 13 14 14
2 3 2 2 2 3 3 5 6 7 8 8 8 7 7 7 8 8 8 9 8 8 8 7 7 8 8 8 9 10 10 11 11 11 12 12 12 13 13 13 14 15 15
0 1 1 1 0 0 1 2 4 4 5 6 6 6 6 6 6 7 7 8 8 8 8 8 8 8 8 9 10 10 11 11 12 12 13 13 14 14 14 15 15 16 16
2 2 2 2 2 2 1 0 2 3 3 4 4 5 5 5 6 6 6 7 7 7 7 7 8 8 9 10 10 11 12 12 13 13 14 14 14 15 15 15 16 16 17
4 4 4 4 3 2 2 1 1 2 2 3 4 5 5 5 5 5 6 6 6 6 7 7 8 8 9 10 11 11 12 12 13 14 14 15 15 15 15 15 16 16 16
4 5 5 5 4 3 2 2 1 2 2 3 4 5 5 6 6 6 6 6 7 7 7 7 8 9 9 10 11 11 12 12 13 13 14 15 15 15 15 15 15 16 16
5 6 6 6 5 4 3 3 2 2 3 4 5 6 6 7 7 7 7 7 7 7 8 8 9 9 10 10 11 11 11 12 13 13 14 15 15 15 15 15 15 16 16
7 7 7 6 6 5 4 3 3 3 3 4 5 6 7 7 8 8 8 8 9 8 8 9 9 10 10 11 11 12 12 13 13 14 14 15 16 16 16 16 16 16 16
8 8 8 7 6 6 5 4 3 3 3 4 5 6 7 8 8 9 9 9 10 10 10 10 10 11 11 12 12 12 13 13 14 14 15 15 16 16 16 16 16 17 17
7 7 7 6 6 6 5 5 4 4 4 4 5 6 7 8 9 10 10 10 10 10 10 11 11 11 12 12 13 13 14 14 14 15 15 15 16 16 17 17 17 17 18
5 5 5 5 5 6 5 5 5 5 5 5 6 7 8 9 10 11 11 12 12 11 12 12 12 12 13 13 14 14 15 15 15 16 17 17 18 18 18 19 19 19 20
2 3 3 4 5 5 5 6 6 6 7 7 8 8 9 10 11 12 12 13 13 13 13 13 13 14 14 15 15 16 16 17 17 18 18 19 19 19 20 20 21 21 21
1 2 3 4 6 6 7 7 8 8 8 9 10 10 11 12 13 14 14 15 15 15 15 15 15 15 16 16 17 17 18 18 19 20 20 21 21 22 22 22 23 24 24
2 4 5 6 7 8 9 10 10 10 11 11 12 12 13 14 15 16 16 17 17 17 18 18 18 18 18 19 19 20 20 21 22 22 23 24 24 25 26 26 27 27 28
5 6 7 8 10 10 11 12 12 13 14 14 15 16 16 17 18 19 19 20 21 21 21 21 21 21 21 22 23 23 24 24 25 25 26 26 27 27 29 30 31 31 32
8 9 10 11 12 13 14 14 15 15 15 16 18 19 20 21 22 23 23 24 24 24 24 24 24 24 25 25 26 26 27 27 28 28 28 29 30 30 31 32 34 35 35
11 11 12 13 14 15 16 16 17 17 18 19 21 22 24 25 26 27 27 28 28 28 28 28 27 27 27 27 28 28 29 29 29 29 30 31 33 33 34 35 36 37 38
15 15 15 15 17 18 18 19 19 20 21 22 24 25 27 28 29 30 31 32 32 32 32 31 30 29 29 29 30 30 30 30 29 30 31 33 35 36 37 37 38 40 41
19 19 19 19 19 20 21 23 23 24 25 27 29 29 29 31 32 32 33 34 35 35 35 34 33 31 29 28 28 29 29 29 30 31 33 34 36 38 39 39 41 42 43
23 23 23 22 22 23 24 26 26 28 30 32 32 31 31 33 34 34 33 34 33 33 32 32 31 28 28 28 28 27 28 30 32 33 34 36 37 39 41 42 43 44 46
27 27 27 26 25 26 27 28 30 32 34 36 35 35 33 33 33 31 31 31 30 31 29 28 28 28 28 27 28 29 30 32 34 36 37 39 40 42 43 44 46 47 49
30 30 30 29 29 30 31 32 33 36 37 38 38 36 35 33 31 27 26 27 27 27 27 27 25 25 25 27 29 31 34 35 36 38 39 41 43 44 46 47 48 50 52
31 32 32 31 31 33 34 35 35 37 39 41 41 39 37 33 28 26 26 25 25 25 27 27 27 27 29 30 32 36 38 40 41 41 42 45 47 48 50 52 53 55 57
32 32 33 33 33 35 36 36 37 39 41 42 42 40 37 31 29 26 24 24 24 25 27 29 30 31 33 35 37 40 42 44 46 48 49 50 52 54 55 57 59 60 61
33 33 34 35 35 36 37 38 39 41 42 42 41 39 35 32 29 29 29 27 27 28 30 32 33 35 37 39 42 45 47 49 50 52 55 56 57 58 60 61 63 64 65
35 35 36 37 38 39 39 40 41 42 42 42 40 39 38 34 32 32 31 31 31 33 34 36 38 40 42 45 47 49 51 53 54 56 58 60 61 62 63 65 66 67 68
Wind_Direction
264 252 244 240 239 238 243 249 255 256 258 258 256 257 257 258 258 256 255 255 255 257 258 262 268 273 276 278 279 280 280 280 279 277 274 272 271 270 270 271 270 270 270
263 249 239 245 245 249 251 253 254 255 256 257 258 260 260 260 260 258 256 253 254 255 258 262 266 269 273 275 276 276 277 278 277 275 274 272 271 270 269 269 270 269 269
211 195 161 135 89 349 267 255 250 249 253 254 256 259 259 260 259 257 254 253 253 254 255 259 262 265 269 272 274 275 275 276 276 275 274 273 273 272 271 270 270 270 269
100 101 100 90 71 57 60 255 250 248 247 244 246 250 256 258 255 252 251 249 250 250 252 255 258 262 266 269 271 273 274 274 275 275 275 274 274 273 272 271 271 270 270
91 89 85 79 71 62 47 360 269 243 239 240 241 245 249 250 249 247 246 245 245 246 248 251 255 259 262 265 269 271 272 273 273 274 274 274 274 273 273 273 272 271 271
82 78 72 69 63 48 20 347 304 267 253 247 244 242 242 242 243 243 244 243 242 242 243 246 251 256 260 264 267 268 269 271 272 272 273 273 273 273 274 274 272 271 271
80 74 71 65 58 44 27 7 334 300 275 261 252 246 244 243 244 244 244 244 244 245 246 248 251 256 259 263 265 266 267 269 270 271 272 273 274 275 274 274 274 273 272
82 78 72 65 58 48 34 14 350 318 292 274 264 258 254 252 251 250 250 251 253 253 253 255 257 259 261 265 267 269 270 271 272 272 273 274 275 275 275 275 275 275 274
90 81 71 67 58 46 36 20 358 331 306 288 278 273 268 263 260 259 260 260 260 260 260 260 262 264 266 268 271 273 274 275 276 276 277 277 277 277 278 277 277 276 276
90 78 69 62 53 41 28 13 0 343 321 302 288 281 277 273 270 269 268 266 264 264 264 265 266 268 270 271 273 274 275 276 277 277 278 278 278 278 278 278 278 278 278
85 68 61 55 44 34 21 8 358 346 332 320 305 293 286 282 279 276 274 272 270 269 269 269 269 270 272 273 275 276 277 278 278 278 278 278 278 278 278 278 278 278 278
82 49 39 27 15 11 3 355 348 341 333 325 315 304 294 287 283 279 277 275 275 274 273 272 272 272 273 275 277 278 279 279 280 281 281 281 280 280 279 279 278 278 278
35 357 350 350 348 347 343 339 337 331 326 320 313 304 298 293 287 283 279 276 275 274 272 272 272 273 275 276 278 278 279 280 281 282 282 282 281 281 281 280 280 279 279
306 319 319 326 332 332 332 331 329 324 319 314 308 301 296 291 287 284 279 275 273 271 270 269 270 272 273 274 276 277 278 279 280 280 281 281 281 281 282 281 281 280 280
283 299 305 312 319 322 322 324 324 319 314 309 305 300 294 290 286 282 279 275 272 270 269 268 269 270 271 272 273 276 278 279 279 281 282 282 282 281 282 282 282 281 280
274 286 297 303 308 314 316 315 315 314 309 304 300 297 293 290 286 281 277 274 271 269 268 267 267 270 272 272 273 274 277 279 278 280 282 282 282 282 282 282 281 280 280
269 279 290 295 301 306 308 306 307 307 306 302 298 294 291 288 285 279 275 272 271 269 268 269 267 269 272 272 273 274 276 278 279 280 281 282 282 282 282 282 282 281 280
267 273 280 287 294 298 301 300 302 302 300 298 296 292 289 285 282 278 275 273 271 269 267 267 267 270 272 274 274 275 277 278 279 280 281 282 282 282 282 282 281 280 280
265 269 274 279 286 292 295 297 299 300 298 296 293 289 288 287 283 278 275 273 270 269 269 267 267 271 274 276 278 279 278 278 281 281 283 284 282 282 283 282 281 280 280
264 268 272 276 280 285 290 293 294 295 292 292 293 292 292 288 284 281 279 275 272 273 273 270 272 274 276 279 280 283 284 285 285 284 285 285 284 283 283 282 281 280 280
265 268 271 273 275 280 284 286 289 290 291 295 294 296 294 292 289 286 284 285 280 279 279 281 280 279 281 282 283 284 285 287 287 287 287 286 284 283 282 283 282 281 281
264 266 269 271 275 278 280 284 287 290 292 295 298 299 301 299 295 295 291 289 286 287 286 288 286 286 285 285 288 289 291 290 290 290 288 288 287 285 284 283 282 282 282
262 264 266 268 272 275 279 283 288 291 294 296 299 301 304 306 303 301 297 296 293 293 291 289 290 291 290 291 291 292 293 293 293 291 290 290 289 288 286 285 284 283 283
262 263 264 267 271 274 278 284 288 292 294 297 299 302 307 308 308 306 301 298 293 294 296 296 293 295 296 294 294 295 294 294 293 293 292 291 290 289 288 287 286 285 284
261 262 263 266 270 274 278 282 286 289 292 295 297 299 304 308 308 307 305 303 295 296 298 297 297 298 298 297 295 295 295 294 292 292 292 292 291 289 288 287 286 285 284
260 261 263 266 268 272 276 280 284 287 289 292 295 296 299 303 305 305 305 303 301 300 300 298 299 300 298 297 295 294 293 292 291 290 290 290 289 289 288 288 287 286 285
Height
5900 5900 5900 5900 5900 5900 5901 5901 5901 5901 5901 5902 5902 5902 5903 5903 5903 5903 5903 5903 5904 5904 5905 5905 5905 5906 5906 5906 5906 5906 5906 5907 5907 5907 5908 5908 5908 5908 5908 5908 5908 5908 5907
5899 5899 5898 5899 5899 5899 5899 5899 5900 5899 5900 5900 5900 5900 5900 5901 5901 5901 5901 5901 5901 5902 5902 5903 5903 5903 5903 5903 5903 5904 5904 5904 5905 5905 5905 5905 5905 5905 5905 5905 5905 5905 5905
5898 5898 5897 5897 5898 5898 5898 5898 5898 5898 5898 5898 5898 5898 5898 5898 5898 5899 5899 5899 5899 5900 5900 5900 5901 5901 5901 5901 5901 5901 5901 5901 5902 5902 5902 5902 5902 5902 5902 5902 5902 5902 5902
5897 5897 5897 5896 5896 5897 5897 5897 5897 5897 5897 5897 5897 5897 5897 5897 5897 5897 5897 5897 5897 5898 5898 5898 5898 5898 5898 5898 5898 5898 5898 5899 5899 5899 5899 5899 5899 5899 5899 5899 5899 5899 5899
5897 5896 5896 5895 5896 5896 5896 5896 5896 5896 5896 5896 5896 5895 5895 5895 5895 5895 5895 5895 5896 5896 5896 5896 5896 5896 5896 5896 5896 5896 5896 5896 5896 5896 5896 5896 5896 5896 5896 5896 5896 5896 5897
5896 5896 5895 5895 5895 5895 5895 5895 5895 5895 5895 5895 5895 5894 5894 5894 5893 5893 5893 5893 5894 5894 5894 5894 5894 5894 5894 5893 5893 5893 5893 5893 5893 5893 5893 5893 5893 5893 5893 5893 5893 5893 5893
5896 5895 5895 5895 5895 5895 5894 5894 5894 5894 5894 5894 5893 5893 5893 5892 5892 5892 5892 5892 5892 5892 5892 5892 5892 5892 5891 5891 5891 5891 5891 5891 5890 5890 5890 5890 5890 5890 5890 5890 5890 5890 5890
5895 5895 5895 5894 5894 5894 5894 5893 5893 5893 5892 5892 5892 5892 5891 5891 5891 5891 5890 5890 5890 5890 5890 5890 5890 5890 5890 5889 5889 5889 5888 5888 5888 5887 5887 5887 5887 5887 5887 5887 5887 5887 5887
5895 5895 5895 5894 5894 5893 5893 5893 5892 5892 5891 5891 5890 5890 5890 5890 5889 5889 5889 5889 5889 5889 5889 5888 5888 5888 5887 5887 5886 5886 5886 5885 5885 5884 5884 5884 5884 5884 5884 5883 5883 5883 5883
5895 5895 5894 5894 5893 5893 5892 5892 5891 5891 5890 5889 5889 5889 5888 5888 5888 5887 5887 5887 5886 5886 5886 5886 5885 5885 5885 5884 5884 5883 5883 5882 5882 5881 5881 5880 5880 5880 5880 5880 5880 5880 5879
5894 5894 5894 5893 5892 5892 5891 5891 5890 5889 5889 5888 5887 5887 5886 5886 5885 5885 5884 5884 5884 5883 5883 5883 5882 5882 5881 5881 5880 5880 5879 5879 5878 5878 5877 5877 5876 5876 5876 5876 5875 5875 5875
5894 5893 5893 5892 5891 5891 5890 5889 5888 5888 5887 5886 5886 5885 5884 5883 5883 5882 5881 5881 5881 5880 5880 5880 5879 5879 5878 5877 5877 5876 5876 5875 5875 5874 5873 5873 5872 5872 5871 5871 5871 5870 5870
5893 5892 5891 5891 5890 5889 5889 5888 5887 5886 5885 5885 5884 5883 5882 5881 5880 5879 5878 5877 5877 5877 5876 5876 5875 5875 5875 5874 5873 5873 5872 5871 5871 5870 5869 5869 5868 5867 5866 5866 5866 5865 5865
5891 5891 5890 5889 5888 5888 5887 5886 5885 5884 5883 5882 5881 5880 5879 5878 5877 5876 5875 5874 5873 5873 5872 5872 5871 5871 5870 5870 5869 5868 5868 5867 5866 5865 5864 5864 5863 5862 5861 5860 5860 5859 5859
5889 5889 5888 5887 5887 5886 5885 5884 5883 5882 5881 5880 5879 5878 5876 5875 5874 5873 5871 5870 5869 5868 5868 5867 5867 5866 5865 5865 5864 5864 5863 5862 5861 5860 5859 5858 5857 5856 5856 5855 5854 5853 5852
5887 5887 5886 5885 5884 5883 5882 5881 5880 5879 5878 5877 5876 5875 5873 5872 5870 5869 5867 5866 5865 5864 5863 5862 5861 5861 5860 5860 5859 5858 5857 5856 5855 5854 5853 5852 5851 5850 5849 5848 5847 5846 5845
5885 5885 5884 5883 5882 5881 5880 5879 5877 5876 5875 5874 5872 5871 5869 5867 5865 5863 5862 5861 5859 5858 5857 5856 5855 5855 5854 5853 5853 5852 5851 5850 5849 5848 5846 5845 5844 5843 5842 5841 5840 5838 5837
5883 5882 5881 5880 5879 5878 5877 5875 5874 5873 5871 5869 5867 5865 5863 5861 5859 5857 5856 5854 5852 5851 5850 5850 5849 5848 5847 5846 5846 5845 5844 5843 5842 5841 5839 5838 5836 5834 5833 5832 5830 5829 5827
5879 5879 5878 5877 5876 5874 5873 5871 5870 5869 5867 5864 5862 5859 5857 5855 5853 5850 5848 5846 5845 5844 5843 5842 5842 5841 5840 5840 5839 5837 5836 5835 5834 5833 5831 5829 5827 5825 5823 5822 5820 5819 5817
5875 5875 5874 5873 5872 5870 5868 5867 5865 5863 5860 5858 5856 5854 5851 5848 5845 5842 5841 5839 5837 5836 5835 5835 5834 5833 5833 5832 5831 5830 5829 5828 5826 5825 5823 5821 5819 5816 5814 5812 5810 5808 5806
5871 5871 5870 5869 5868 5866 5864 5862 5860 5857 5854 5852 5850 5848 5845 5842 5839 5836 5834 5832 5830 5830 5829 5828 5827 5826 5825 5824 5824 5823 5822 5820 5818 5816 5814 5811 5809 5806 5804 5801 5798 5796 5794
5866 5866 5865 5864 5863 5861 5859 5857 5855 5852 5849 5846 5843 5841 5838 5835 5832 5830 5828 5826 5825 5823 5822 5821 5820 5819 5818 5817 5816 5814 5813 5812 5810 5807 5804 5801 5798 5795 5792 5789 5786 5783 5780
5860 5860 5860 5859 5858 5855 5853 5852 5850 5847 5843 5842 5839 5835 5832 5829 5827 5825 5823 5820 5819 5817 5816 5815 5815 5813 5811 5810 5808 5806 5803 5801 5798 5796 5793 5789 5786 5782 5779 5776 5772 5769 5765
5854 5854 5854 5853 5852 5850 5848 5846 5844 5841 5839 5836 5833 5830 5827 5825 5823 5820 5818 5815 5813 5812 5810 5809 5808 5806 5804 5801 5799 5796 5793 5789 5786 5783 5780 5777 5772 5768 5764 5760 5756 5752 5748
5847 5847 5847 5847 5846 5844 5843 5841 5838 5836 5833 5830 5827 5824 5822 5819 5817 5814 5812 5810 5808 5807 5804 5802 5800 5797 5795 5792 5789 5785 5781 5777 5773 5769 5765 5761 5757 5753 5748 5744 5739 5734 5730
5840 5840 5840 5839 5838 5837 5835 5833 5831 5828 5826 5823 5820 5817 5815 5813 5810 5808 5806 5804 5802 5799 5797 5794 5791 5788 5785 5781 5777 5773 5769 5765 5760 5755 5750 5746 5741 5736 5731 5725 5720 5715 5710